Location: 3 Angels Observatory
(30.5437°N, 88.5068°W)
Time: 08:33:27
(UTC-05:00)

Amateur Radio Satellites - All Passes

Search period start: 22 September 2017 08:03
Search period end: 23 September 2017 08:03
Location: 3 Angels Observatory, 30.5437°N, 88.5068°W

Satellite Date Start Highest point End Downlink Frequencies (MHz)
Time Altitude Azimuth
XW-2A 22 Sep 08:10:48 08:14:03 39° 99° (E) 08:17:15 145.665 - 145.685
CUTE-I 22 Sep 08:12:22 08:16:37 25° 291° (WNW) 08:20:52 437.470
FO-29 22 Sep 08:18:23 08:22:35 21° 70° (ENE) 08:26:31 435.910
SEEDS 22 Sep 08:26:42 08:30:52 77° 284° (WNW) 08:35:00 437.485
AO-73 22 Sep 08:27:53 08:31:25 22° 96° (E) 08:34:54 145.935
ZACube-1 22 Sep 08:29:25 08:33:16 26° 97° (E) 08:37:03 437.345
Oscar 11 22 Sep 08:29:54 08:32:13 14° 94° (E) 08:34:33 .
RS-15 22 Sep 08:33:14 08:41:18 19° 323° (NW) 08:49:25 29.354- 29.394
STRAND 1 22 Sep 08:46:38 08:50:12 19° 265° (W) 08:53:47 437.568
HO-68 22 Sep 08:50:42 08:57:33 49° 290° (WNW) 09:04:23 435.675
CUTE 1.7 + AOD 2 22 Sep 08:52:15 08:55:29 22° 289° (WNW) 08:58:42 437.475
AAUSAT CUBESAT 2 22 Sep 08:54:30 08:58:37 85° 283° (WNW) 09:02:42 437.432
CUBEBUG 2 22 Sep 09:03:25 09:07:40 34° 287° (WNW) 09:11:56 437.445
UWE-3 22 Sep 09:13:40 09:18:08 45° 285° (WNW) 09:22:34 435.000/436.395/437.385
TIGRISAT 22 Sep 09:14:45 09:17:30 17° 69° (ENE) 09:20:17 435.000
EO-88 22 Sep 09:59:19 10:01:38 16° 95° (E) 10:03:57 145.990 - 145.960
FO-29 22 Sep 10:01:48 10:07:26 40° 260° (W) 10:12:34 435.910
AO-73 22 Sep 10:03:44 10:07:31 26° 288° (WNW) 10:11:16 145.935
Oscar 11 22 Sep 10:04:28 10:08:25 35° 286° (WNW) 10:12:19 .
ZACube-1 22 Sep 10:05:47 10:09:19 22° 289° (WNW) 10:12:49 437.345
PRISM 22 Sep 10:16:50 10:20:50 55° 76° (ENE) 10:24:51 437.425
UNISAT 6 22 Sep 10:25:26 10:29:38 56° 260° (W) 10:33:56 437.425
Max Valier Satellite 22 Sep 10:27:24 10:31:07 61° 100° (E) 10:34:47 145.860
DELFI C3 22 Sep 10:37:59 10:41:51 66° 284° (WNW) 10:45:43 145.870
TIGRISAT 22 Sep 10:50:06 10:53:52 30° 262° (W) 10:57:44 435.000
LO-87 22 Sep 11:02:00 11:02:56 11° 94° (E) 11:03:52 145.935 - 145.965
YUBILEINY 22 Sep 11:10:02 11:14:43 16° 81° (E) 11:19:23 435.215
DUCHIFAT 1 22 Sep 11:22:59 11:25:35 16° 70° (ENE) 11:28:11 145.980
AIST 2D 22 Sep 11:26:06 11:29:37 72° 78° (ENE) 11:33:10 435.315
EO-88 22 Sep 11:32:22 11:35:11 21° 288° (WNW) 11:37:58 145.990 - 145.960
POLYITAN 1 22 Sep 11:33:14 11:36:51 29° 72° (ENE) 11:40:29 437.675
EO-79 22 Sep 11:37:49 11:41:34 33° 73° (ENE) 11:45:20 145.935-145.965
QB50P2 22 Sep 11:50:29 11:54:34 54° 75° (ENE) 11:58:41 145.880/145.840
ESTCUBE 1 22 Sep 11:57:52 12:02:08 43° 99° (E) 12:06:23 437.505/2401.250
M-CUBED/EXP-1 PRIME 22 Sep 12:03:57 12:07:49 30° 69° (ENE) 12:11:28 437.505
BUGSAT 1 22 Sep 12:05:41 12:07:02 11° 68° (ENE) 12:08:23 437.445
NO-84 22 Sep 12:09:46 12:12:58 23° 124° (SE) 12:16:02 435.350 FM
NANOSAT C BR1 22 Sep 12:27:28 12:31:35 61° 260° (W) 12:35:44 145.865
LO-87 22 Sep 12:33:11 12:36:21 30° 286° (WNW) 12:39:33 145.935 - 145.965
VELOX 1 22 Sep 12:34:31 12:37:23 17° 95° (E) 12:40:14 145.980
SPROUT 22 Sep 12:44:13 12:48:04 32° 98° (E) 12:51:55 437.525
O/OREOS (USA 219) 22 Sep 12:52:55 12:57:26 52° 70° (ENE) 13:01:54 437.305
DUCHIFAT 1 22 Sep 12:57:19 13:00:57 29° 262° (W) 13:04:37 145.980
YUBILEINY 22 Sep 13:01:41 13:10:24 79° 276° (W) 13:19:07 435.215
Gurwin Techsat 1B 22 Sep 13:02:44 13:06:32 20° 68° (ENE) 13:10:21 435.225
SO-50 22 Sep 13:02:57 13:04:43 12° 108° (ESE) 13:06:30 436.795
POLYITAN 1 22 Sep 13:09:56 13:12:36 16° 265° (W) 13:15:16 437.675
RS-15 22 Sep 13:13:09 13:21:39 21° 39° (NE) 13:29:49 29.354- 29.394
EO-79 22 Sep 13:15:06 13:17:21 14° 265° (W) 13:19:37 145.935-145.965
Oscar 19 22 Sep 13:27:49 13:32:53 57° 74° (ENE) 13:37:59 437.125/150
ESTCUBE 1 22 Sep 13:36:24 13:38:30 13° 292° (WNW) 13:40:35 437.505/2401.250
BUGSAT 1 22 Sep 13:38:14 13:41:58 38° 261° (W) 13:45:44 437.445
M-CUBED/EXP-1 PRIME 22 Sep 13:39:03 13:42:06 18° 259° (WSW) 13:45:04 437.505
UKube-1 22 Sep 13:44:17 13:46:55 16° 95° (E) 13:49:32 .
NO-84 22 Sep 13:46:53 13:50:17 27° 314° (NW) 13:53:28 435.350 FM
DX 1 22 Sep 13:47:13 13:50:59 29° 98° (E) 13:54:44 434.975-435.025
PCSat 22 Sep 13:51:49 13:55:44 20° 105° (ESE) 13:59:38 145.827
VELOX 1 22 Sep 14:09:58 14:13:48 30° 288° (WNW) 14:17:38 145.980
50 SAT 22 Sep 14:14:47 14:18:05 71° 283° (WNW) 14:21:22 437.505
SPROUT 22 Sep 14:21:03 14:23:38 16° 291° (WNW) 14:26:13 437.525
ITAMSAT 1 22 Sep 14:32:49 14:35:04 13° 65° (ENE) 14:37:19 435.822/435.867
O/OREOS (USA 219) 22 Sep 14:35:42 14:36:17 10° 262° (W) 14:36:51 437.305
SO-50 22 Sep 14:40:22 14:44:42 48° 301° (WNW) 14:49:03 436.795
Gurwin Techsat 1B 22 Sep 14:41:14 14:46:08 38° 261° (W) 14:51:05 435.225
AO-7 22 Sep 14:47:44 14:55:19 41° 66° (ENE) 15:02:54 .
ITUPSAT 1 22 Sep 15:02:40 15:04:58 13° 94° (E) 15:07:16 437.325
YUBILEINY 22 Sep 15:06:24 15:08:26 11° 293° (WNW) 15:10:29 435.215
Oscar 19 22 Sep 15:10:21 15:12:27 12° 267° (W) 15:14:33 437.125/150
UKube-1 22 Sep 15:19:08 15:22:56 31° 288° (WNW) 15:26:43 .
DX 1 22 Sep 15:23:58 15:26:54 18° 291° (WNW) 15:29:49 434.975-435.025
RS-15 22 Sep 15:24:17 15:36:12 82° 63° (ENE) 15:47:23 29.354- 29.394
PCSat 22 Sep 15:33:43 15:38:45 40° 299° (WNW) 15:43:51 145.827
BEESAT 22 Sep 15:38:24 15:42:49 36° 99° (E) 15:47:13 436.000
ITAMSAT 1 22 Sep 16:08:53 16:13:57 59° 259° (WSW) 16:19:04 435.822/435.867
MOZHAYETS 4 22 Sep 16:21:21 16:25:58 68° 284° (WNW) 16:30:31
ITUPSAT 1 22 Sep 16:38:20 16:42:56 46° 287° (WNW) 16:47:31 437.325
AO-7 22 Sep 16:40:27 16:47:57 37° 260° (W) 16:55:29 .
CUBESAT XI-V 22 Sep 16:44:24 16:48:41 37° 99° (E) 16:52:56 437.345
DOVE 4 22 Sep 16:52:32 16:56:22 28° 73° (ENE) 17:00:03 437.250
KKS-1 22 Sep 16:52:39 16:54:49 13° 95° (E) 16:56:59 437.445
BEESAT 22 Sep 17:17:05 17:20:16 18° 292° (WNW) 17:23:26 436.000
STARS 22 Sep 17:22:06 17:22:40 10° 94° (E) 17:23:14 437.465
XW-2D 22 Sep 17:23:46 17:25:45 14° 70° (ENE) 17:27:45 145.860 - 145.880
XW-2B 22 Sep 17:35:17 17:37:59 19° 72° (ENE) 17:40:43 145.730 - 145.750
XW-2F 22 Sep 17:36:21 17:39:00 18° 72° (ENE) 17:41:41 145.980 - 146.000
RS-15 22 Sep 17:39:33 17:47:03 20° 260° (W) 17:54:22 29.354- 29.394
CUTE-I 22 Sep 17:48:32 17:53:06 30° 70° (ENE) 17:57:41 437.470
XW-2C 22 Sep 17:55:38 17:59:09 36° 75° (ENE) 18:02:42 145.795 - 145.815
NUDT-PHONESAT 22 Sep 18:03:03 18:06:21 30° 74° (ENE) 18:09:39 437.300
LilacSat-2 22 Sep 18:06:09 18:09:56 55° 77° (ENE) 18:13:44 437.200
Tancredo 1 22 Sep 18:20:51 18:22:32 15° 128° (SE) 18:24:14 437.200
CUBESAT XI-V 22 Sep 18:22:56 18:25:41 16° 291° (WNW) 18:28:24 437.345
JUGNU 22 Sep 18:23:03 18:27:00 18° 165° (SSE) 18:30:56 437.505
KKS-1 22 Sep 18:27:19 18:31:28 39° 286° (WNW) 18:35:35 437.445
KAITUO 1B 22 Sep 18:29:03 18:32:49 78° 78° (ENE) 18:36:37 145.475/437.950
DOVE 4 22 Sep 18:30:45 18:33:59 19° 264° (W) 18:37:06 437.250
BEESAT 3 22 Sep 18:47:53 18:50:07 15° 109° (ESE) 18:52:23 437.485
STARS 22 Sep 18:54:55 18:59:11 50° 286° (WNW) 19:03:26 437.465
XW-2D 22 Sep 18:56:16 18:59:37 28° 263° (W) 19:02:58 145.860 - 145.880
XW-2B 22 Sep 19:09:03 19:11:59 21° 264° (W) 19:14:55 145.730 - 145.750
XW-2F 22 Sep 19:09:59 19:12:55 21° 264° (W) 19:15:53 145.980 - 146.000
HO-68 22 Sep 19:12:16 19:19:21 71° 73° (ENE) 19:26:28 435.675
SEEDS 22 Sep 19:12:35 19:16:24 33° 73° (ENE) 19:20:11 437.485
STRAND 1 22 Sep 19:23:06 19:26:50 20° 96° (E) 19:30:34 437.568
CUTE-I 22 Sep 19:28:44 19:33:03 25° 263° (W) 19:37:23 437.470
XW-2C 22 Sep 19:32:38 19:33:25 10° 267° (W) 19:34:11 145.795 - 145.815
CUTE 1.7 + AOD 2 22 Sep 19:37:51 19:42:05 65° 259° (W) 19:46:22 437.475
NUDT-PHONESAT 22 Sep 19:38:45 19:40:13 12° 266° (W) 19:41:41 437.300
AAUSAT CUBESAT 2 22 Sep 19:39:03 19:42:37 28° 73° (ENE) 19:46:11 437.432
ISS 22 Sep 19:50:16 19:52:53 23° 128° (SE) 19:55:32 437.550
Tancredo 1 22 Sep 19:54:50 19:56:55 20° 320° (NW) 19:59:01 437.200
CUBEBUG 2 22 Sep 19:55:19 19:59:30 80° 260° (W) 20:03:48 437.445
UWE-3 22 Sep 20:04:32 20:08:44 70° 76° (ENE) 20:13:04 435.000/436.395/437.385
AO-85 22 Sep 20:06:45 20:10:25 38° 113° (ESE) 20:14:03 145.980
XW-2A 22 Sep 20:08:26 20:11:46 56° 260° (W) 20:15:08 145.665 - 145.685
JUGNU 22 Sep 20:10:32 20:15:30 27° 175° (S) 20:20:25 437.505
BEESAT 3 22 Sep 20:23:45 20:27:20 32° 302° (WNW) 20:30:59 437.485
BEESAT 2 22 Sep 20:28:00 20:31:56 72° 116° (ESE) 20:35:57 435.950
nSIGHT-1 22 Sep 20:31:10 20:34:23 87° 321° (NW) 20:37:36 .
SEEDS 22 Sep 20:49:43 20:52:05 15° 266° (W) 20:54:26 437.485
AO-73 22 Sep 20:52:26 20:56:40 67° 260° (W) 21:01:02 145.935
Oscar 11 22 Sep 20:52:44 20:57:04 83° 77° (ENE) 21:01:26 .
ZACube-1 22 Sep 20:54:42 20:58:52 54° 260° (W) 21:03:10 437.345
STRAND 1 22 Sep 21:01:21 21:06:00 36° 288° (WNW) 21:10:40 437.568
Max Valier Satellite 22 Sep 21:02:42 21:04:05 12° 70° (ENE) 21:05:29 145.860
HO-68 22 Sep 21:03:28 21:07:30 16° 266° (W) 21:11:33 435.675
AAUSAT CUBESAT 2 22 Sep 21:15:21 21:18:01 16° 265° (W) 21:20:40 437.432
FO-29 22 Sep 21:15:27 21:20:27 31° 99° (E) 21:25:56 435.910
DELFI C3 22 Sep 21:17:42 21:21:08 29° 73° (ENE) 21:24:34 145.870
ISS 22 Sep 21:26:39 21:29:17 22° 321° (NW) 21:31:56 437.550
SRMSAT 22 Sep 21:33:50 21:38:01 20° 167° (SSE) 21:42:12 437.500
AO-85 22 Sep 21:49:15 21:50:56 12° 308° (NW) 21:52:36 145.980
JUGNU 22 Sep 21:59:04 22:04:01 28° 185° (S) 22:08:57 437.505
NO-84 22 Sep 22:01:58 22:04:39 37° 234° (SW) 22:07:16 435.350 FM
EO-88 22 Sep 22:03:17 22:06:53 62° 77° (ENE) 22:10:32 145.990 - 145.960
PRISM 22 Sep 22:05:48 22:07:05 11° 94° (E) 22:08:22 437.425
UNISAT 6 22 Sep 22:22:14 22:26:45 46° 99° (E) 22:31:15 437.425
Max Valier Satellite 22 Sep 22:34:16 22:37:33 31° 262° (W) 22:40:53 145.860
TIGRISAT 22 Sep 22:46:05 22:50:47 82° 101° (E) 22:55:29 435.000
ESTCUBE 1 22 Sep 22:52:25 22:55:47 21° 70° (ENE) 22:59:09 437.505/2401.250
DELFI C3 22 Sep 22:53:43 22:55:51 14° 265° (W) 22:58:00 145.870
FO-29 22 Sep 23:00:39 23:05:23 29° 289° (WNW) 23:10:33 435.910
LO-87 22 Sep 23:03:12 23:06:27 37° 75° (ENE) 23:09:44 145.935 - 145.965
SO-50 22 Sep 23:16:50 23:20:56 31° 57° (ENE) 23:25:03 436.795
YUBILEINY 22 Sep 23:19:12 23:27:16 40° 78° (ENE) 23:35:19 435.215
SRMSAT 22 Sep 23:21:40 23:26:39 28° 176° (S) 23:31:38 437.500
SPROUT 22 Sep 23:33:52 23:35:37 12° 68° (ENE) 23:37:22 437.525
PRISM 22 Sep 23:38:41 23:42:26 38° 286° (WNW) 23:46:12 437.425
QB50P2 22 Sep 23:42:16 23:44:34 14° 94° (E) 23:46:51 145.880/145.840
JUGNU 22 Sep 23:48:33 23:52:29 18° 194° (SSW) 23:56:24 437.505
UNISAT 6 23 Sep 00:00:41 00:03:00 14° 292° (WNW) 00:05:18 437.425
NANOSAT C BR1 23 Sep 00:17:22 00:21:09 31° 98° (E) 00:24:55 145.865
PCSat 23 Sep 00:26:50 00:32:05 49° 62° (ENE) 00:37:17 145.827
ESTCUBE 1 23 Sep 00:28:30 00:32:21 27° 263° (W) 00:36:14 437.505/2401.250
AIST 2D 23 Sep 00:29:36 00:32:52 38° 285° (WNW) 00:36:07 435.315
DX 1 23 Sep 00:38:53 00:40:53 13° 68° (ENE) 00:42:52 434.975-435.025
50 SAT 23 Sep 00:40:36 00:42:12 13° 71° (ENE) 00:43:48 437.505
DUCHIFAT 1 23 Sep 00:45:58 00:50:12 64° 101° (ESE) 00:54:24 145.980
SO-50 23 Sep 00:57:42 01:01:10 21° 250° (WSW) 01:04:39 436.795
POLYITAN 1 23 Sep 00:58:20 01:02:36 66° 284° (WNW) 01:06:50 437.675
VELOX 1 23 Sep 01:00:41 01:05:04 72° 258° (WSW) 01:09:28 145.980
EO-79 23 Sep 01:02:56 01:07:08 57° 284° (WNW) 01:11:19 145.935-145.965
SPROUT 23 Sep 01:07:06 01:11:05 40° 261° (W) 01:15:05 437.525
SRMSAT 23 Sep 01:10:29 01:15:20 27° 187° (S) 01:20:12 437.500
YUBILEINY 23 Sep 01:16:10 01:23:47 35° 273° (W) 01:31:26 435.215
QB50P2 23 Sep 01:16:29 01:20:23 34° 287° (WNW) 01:24:15 145.880/145.840
M-CUBED/EXP-1 PRIME 23 Sep 01:21:48 01:24:56 43° 105° (ESE) 01:28:03 437.505
O/OREOS (USA 219) 23 Sep 01:23:21 01:24:57 12° 98° (E) 01:26:32 437.305
BUGSAT 1 23 Sep 01:24:55 01:28:56 42° 100° (E) 01:32:57 437.445
Gurwin Techsat 1B 23 Sep 01:25:52 01:27:45 12° 93° (E) 01:29:40 435.225
Oscar 19 23 Sep 01:45:27 01:50:01 32° 98° (E) 01:54:33 437.125/150
NANOSAT C BR1 23 Sep 01:53:54 01:56:33 16° 290° (WNW) 01:59:12 145.865
UKube-1 23 Sep 02:07:06 02:11:24 81° 259° (W) 02:15:42 .
PCSat 23 Sep 02:11:44 02:14:59 16° 256° (WSW) 02:18:14 145.827
50 SAT 23 Sep 02:11:53 02:14:27 21° 263° (W) 02:17:00 437.505
DX 1 23 Sep 02:12:33 02:16:38 41° 260° (W) 02:20:44 434.975-435.025
Tancredo 1 23 Sep 02:19:12 02:20:42 14° 37° (NE) 02:22:12 437.200
BEESAT 23 Sep 02:39:47 02:43:28 23° 70° (ENE) 02:47:09 436.000
AO-7 23 Sep 02:57:28 03:02:22 17° 95° (E) 03:07:14 .
O/OREOS (USA 219) 23 Sep 02:59:34 03:03:51 44° 291° (WNW) 03:08:11 437.305
SRMSAT 23 Sep 03:00:21 03:03:56 17° 196° (SSW) 03:07:33 437.500
BUGSAT 1 23 Sep 03:02:15 03:03:51 12° 292° (WNW) 03:05:27 437.445
Gurwin Techsat 1B 23 Sep 03:02:46 03:07:59 61° 286° (WNW) 03:13:13 435.225
MOZHAYETS 4 23 Sep 03:17:10 03:21:40 58° 75° (ENE) 03:26:13
Oscar 19 23 Sep 03:25:06 03:29:06 23° 291° (WNW) 03:33:04 437.125/150
RS-15 23 Sep 03:31:48 03:39:15 19° 100° (E) 03:46:43 29.354- 29.394
ITUPSAT 1 23 Sep 03:38:58 03:43:43 77° 258° (WSW) 03:48:30 437.325
CUBESAT XI-V 23 Sep 03:42:39 03:46:06 21° 70° (ENE) 03:49:33 437.345
Tancredo 1 23 Sep 03:52:56 03:55:14 25° 231° (SW) 03:57:31 437.200
ISS 23 Sep 03:58:22 04:01:08 24° 39° (NE) 04:03:54 437.550
BEESAT 23 Sep 04:17:00 04:21:01 28° 262° (W) 04:25:05 436.000
ITAMSAT 1 23 Sep 04:27:13 04:32:26 79° 103° (ESE) 04:37:39 435.822/435.867
nSIGHT-1 23 Sep 04:38:50 04:42:05 86° 46° (NE) 04:45:20 .
BEESAT 3 23 Sep 04:45:42 04:48:52 23° 56° (NE) 04:51:59 437.485
AO-7 23 Sep 04:47:23 04:55:40 78° 288° (WNW) 05:03:55 .
DOVE 4 23 Sep 04:58:27 04:59:27 11° 94° (E) 05:00:28 437.250
CUBESAT XI-V 23 Sep 05:19:06 05:23:12 30° 263° (W) 05:27:20 437.345
KKS-1 23 Sep 05:19:06 05:23:31 90° 219° (SW) 05:27:58 437.445
ISS 23 Sep 05:34:58 05:37:29 20° 232° (SW) 05:39:59 437.550
RS-15 23 Sep 05:37:53 05:50:05 89° 298° (WNW) 06:02:31 29.354- 29.394
STARS 23 Sep 05:45:26 05:49:44 68° 76° (ENE) 05:54:04 437.465
KAITUO 1B 23 Sep 06:07:54 06:09:00 11° 94° (E) 06:10:06 145.475/437.950
CUTE-I 23 Sep 06:11:40 06:15:25 19° 96° (E) 06:19:08 437.470
AO-85 23 Sep 06:21:52 06:26:29 83° 244° (WSW) 06:31:26 145.980
BEESAT 3 23 Sep 06:23:20 06:26:15 20° 250° (WSW) 06:29:07 437.485
BEESAT 2 23 Sep 06:28:12 06:32:13 73° 245° (WSW) 06:36:09 435.950
DOVE 4 23 Sep 06:33:08 06:37:14 46° 285° (WNW) 06:41:32 437.250
XW-2D 23 Sep 06:33:47 06:37:22 40° 99° (E) 06:40:55 145.860 - 145.880
STRAND 1 23 Sep 06:34:17 06:37:25 17° 67° (ENE) 06:40:34 437.568
AO-7 23 Sep 06:43:43 06:47:05 13° 305° (NW) 06:50:28 .
XW-2B 23 Sep 06:45:58 06:49:44 58° 100° (E) 06:53:25 145.730 - 145.750
XW-2F 23 Sep 06:46:30 06:50:13 55° 100° (E) 06:53:53 145.980 - 146.000
HO-68 23 Sep 06:48:05 06:52:38 18° 94° (E) 06:57:11 435.675
XW-2C 23 Sep 07:07:17 07:11:03 65° 282° (WNW) 07:14:47 145.795 - 145.815
NUDT-PHONESAT 23 Sep 07:11:49 07:15:32 85° 282° (WNW) 07:19:14 437.300
LilacSat-2 23 Sep 07:19:00 07:22:36 40° 285° (WNW) 07:26:09 437.200
CUTE 1.7 + AOD 2 23 Sep 07:28:31 07:32:17 31° 98° (E) 07:36:02 437.475
XW-2A 23 Sep 07:37:08 07:38:30 12° 94° (E) 07:39:52 145.665 - 145.685
KAITUO 1B 23 Sep 07:39:42 07:43:02 31° 286° (WNW) 07:46:20 145.475/437.950
CUTE-I 23 Sep 07:50:34 07:55:30 40° 288° (WNW) 08:00:27 437.470
CUBEBUG 2 23 Sep 07:51:24 07:55:43 34° 98° (E) 08:00:02 437.445
